Flag for Laos Weather past 2 weeks in Vientiane, Laos

Now
88 °F

Scattered clouds.


Feels Like: 96 °F
Forecast: 74 / 84 °F
Wind: 2 mph from Southwest

Location: Vientiane Airport

Current Time: Sep 21, 2014 at 5:50:06 PM

Latest Report: Sep 21, 2014 at 5:30 PM


Visibility: N/A

Pressure: 29.68 "Hg

Humidity: 62%

Dew point: 73 °F

Location of VientianeLocation

Historic Weather in Vientiane — Graph

°F

Vientiane temperature yesterday

Maximum temperature yesterday: 95 °F (at 3:00 PM)
Minimum temperature yesterday: 79 °F (at 7:00 AM)
Average temperature yesterday: 88 °F

Past Weeks' High & Low Weather Summary

 TemperatureHumidityPressure
High95 °F (Sep 10, 3:00 PM)94% (Sep 8, 6:00 AM)29.86 "Hg (Sep 8, 6:00 AM)
Low77 °F (Sep 7, 7:00 AM)50% (Sep 10, 3:00 PM)29.39 "Hg (Sep 16, 4:00 PM)
Average86 °F75%29.69 "Hg
* Reported Sep 6 4:00 PM — Sep 21 4:00 PM, Vientiane, Weather by CustomWeather, © 2014

Note: Actual official high and low records may vary slightly from our data, if they occured in-between our weather recording intervals... More about our weather records

Advertising

Vientiane weather history for previous 24 hours

 ConditionsComfort  
Time TempWeatherWind HumidityBarometerVisibility
4:00 PM
Sep 21
91 °FScattered clouds.7 mph59%29.68 "HgN/A
3:30 PM91 °FScattered clouds.9 mph59%29.65 "HgN/A
3:00 PM91 °FScattered clouds.9 mph59%29.68 "HgN/A
2:30 PM93 °FScattered clouds.9 mph53%29.68 "HgN/A
2:00 PM93 °FScattered clouds.7 mph53%29.71 "HgN/A
1:30 PM91 °FScattered clouds.7 mph59%29.71 "HgN/A
1:00 PM91 °FScattered clouds.5 mph59%29.74 "HgN/A
12:00 PM90 °FScattered clouds.2 mph67%29.77 "HgN/A
11:30 AM86 °FScattered clouds.2 mph75%29.77 "Hg5 mi
11:00 AM86 °FFog.2 mph75%29.80 "Hg5 mi
10:30 AM84 °FFog.2 mph79%29.80 "Hg4 mi
10:00 AM82 °FFog.2 mph84%29.80 "Hg4 mi
9:00 AM81 °FFog.2 mph89%29.80 "Hg3 mi
8:30 AM81 °FFog.2 mph89%29.77 "Hg3 mi
8:00 AM81 °FFog.2 mph89%29.77 "Hg3 mi
7:30 AM81 °FFog.2 mph89%29.77 "Hg3 mi
7:00 AM81 °FFog.2 mph89%29.77 "Hg3 mi
8:30 PM
Sep 20
88 °FThunderstorms. Passing clouds.2 mph75%29.68 "Hg3 mi
8:00 PM88 °FThunderstorms. Passing clouds.2 mph75%29.68 "Hg3 mi
7:00 PM90 °FFog.2 mph75%29.65 "Hg3 mi
6:30 PM91 °FPassing clouds.2 mph59%29.62 "Hg4 mi
6:00 PM91 °FScattered clouds.2 mph59%29.62 "HgN/A
5:00 PM93 °FPartly sunny.2 mph56%29.62 "HgN/A
Weather by CustomWeather, © 2014

See weather overviewHow to use our weather pages